TIANYAN 01

Last updated on Mon Jun 22 2026 00:03:19 GMT+0000 (Coordinated Universal Time)

1 44881U 19093C 26172.48737692 .00000833 00000+0 10000-3 0 9998 2 44881 97.7524 244.6147 0015031 74.5409 285.7466 14.86525068352056
UTC large
Height (km)
Speed (km/s)
/
Latitude / Longitude
Inclination (degrees)
Orbital Period (minutes)
Azimuth
Elevation
Range (km)
Doppler Factor

Next 0 passes for location: London (51.5072 / 0.1276)

No passes found over London.
TIANYAN 01